Skip Page Navigation
NASA JPL Caltech
NASA Logo - Jet Propulsion Laboratory + View the NASA Portal
+ Center for Near-Earth Object Studies
JPL Home Earth Solar System Stars & Galaxies Technology
JPL Solar System Dynamics
BODIES ORBITS EPHEMERIDES TOOLS PHYSICAL DATA DISCOVERY FAQ SITE MAP
IMPORTANT: The SSD Announcement email list is now available. Major changes are coming in the near future, including possible hostname and/or URL changes. To be notified of such changes, subscribe to this email list.

Please visit this page for more details.


JPL Small-Body Database Browser
Search: [ help ]  
11568 (1993 GL)
Classification: Main-belt Asteroid          SPK-ID: 2011568
Ephemeris | Orbit Diagram | Orbital Elements | Mission Design | Physical Parameters | Discovery Circumstances | Close-Approach Data ]

[ show orbit diagram ]
Orbital Elements at Epoch 2458600.5 (2019-Apr-27.0) TDB
Reference: JPL 25 (heliocentric ecliptic J2000)
 Element Value Uncertainty (1-sigma)   Units 
e .03057560628343696 3.177e-08  
a 2.865668923238933 1.2998e-08 au
q 2.778049358503299 8.8608e-08 au
i 2.739058265565658 4.5149e-06 deg
node 48.57120683538925 8.9138e-05 deg
peri 205.7877111156878 0.00012972 deg
M 86.217825548177 9.4963e-05 deg
tp 2458176.142372524328
(2018-Feb-26.64237252)
0.00046751 TDB
period 1771.892818218633
4.85
1.2055e-05
3.3e-08
d
yr
n .2031725600434032 1.3823e-09 deg/d
Q 2.953288487974568 1.3395e-08 au
  Orbit Determination Parameters
   # obs. used (total)      2106  
   data-arc span      12494 days (34.21 yr)  
   first obs. used      1985-09-20  
   last obs. used      2019-12-05  
   planetary ephem.      DE431  
   SB-pert. ephem.      SB431-N16  
   condition code      0  
   norm. resid. RMS      .47336  
   source      ORB  
   producer      Otto Matic  
   solution date      2019-Dec-13 23:17:14  

Additional Information
 Earth MOID = 1.76329 au 
 Jupiter MOID = 2.03871 au 
 T_jup = 3.298 
[ show covariance matrix ]

Ephemeris | Orbit Diagram | Orbital Elements | Mission Design | Physical Parameters | Discovery Circumstances | Close-Approach Data ]

Physical Parameter Table
Parameter Symbol Value Units Sigma Reference Notes
absolute magnitude H 12.8   n/a MPO319230  

11568 (1993 GL)          Discovered 1993-Apr-14 by Otomo, S. at Kiyosato
Reference: 19990928/Numbers.arcLast Updated: 2004-04-19

[ show close-approach data ]
Alternate Designations
 1993 GL = 1985 SV4 = 1997 AA13 
Ephemeris | Orbit Diagram | Orbital Elements | Mission Design | Physical Parameters | Discovery Circumstances | Close-Approach Data ]
ABOUT SSD CREDITS/AWARDS PRIVACY/COPYRIGHT GLOSSARY LINKS
FirstGov 2019-Dec-14 08:31 UT
(server date/time)  
NASA Home Page
Site Manager:   Ryan S. Park
Webmaster  Alan B. Chamberlin